Location: The Jewett Observatory
(46.7288°N, 117.1525°W)
Time: 02:23:26
(UTC-07:00)

Meteor 1-28 Rocket - Visible Passes

Search period start: 29 August 2015 00:00
Search period end: 08 September 2015 00:00
Orbit: 508 x 530 km, 97.2° (Epoch: 28 August)

Date Brightness Start Highest point End Pass type
(mag) Time Alt. Az. Time Alt. Az. Time Alt. Az.
29 Aug 3.3 20:11:22 10° NNE 20:15:03 54° E 20:18:44 10° S visible
29 Aug 6.4 21:46:53 10° NNW 21:48:52 14° WNW 21:50:44 10° W visible
30 Aug 3.7 19:57:49 10° NNE 20:01:19 37° E 20:04:49 10° SSE visible
30 Aug 6.1 21:32:36 10° NNW 21:35:17 19° WNW 21:37:53 10° WSW visible
31 Aug 5.6 21:18:33 10° NNW 21:21:42 25° WNW 21:24:46 10° SW visible
01 Sep 4.9 21:04:37 10° N 21:08:04 34° WNW 21:11:29 10° SW visible
02 Sep 4.2 20:50:46 10° N 20:54:25 49° WNW 20:58:02 10° SSW visible
03 Sep 3.4 20:36:59 10° N 20:40:44 72° WNW 20:44:29 10° SSW visible
04 Sep 3.1 20:23:16 10° NNE 20:27:03 78° ESE 20:30:48 10° S visible
04 Sep 6.8 22:00:03 10° NW 22:00:43 10° WNW 22:01:11 10° WNW visible
05 Sep 3.3 20:09:37 10° NNE 20:13:19 53° E 20:17:00 10° S visible
05 Sep 6.4 21:45:04 10° NNW 21:47:08 14° WNW 21:49:05 10° W visible
06 Sep 3.7 19:56:03 10° NNE 19:59:33 36° E 20:03:05 10° SSE visible
06 Sep 6.0 21:30:48 10° NNW 21:33:32 19° WNW 21:36:12 10° WSW visible
07 Sep 4.2 19:42:35 10° NE 19:45:46 26° E 19:48:59 10° SSE visible
07 Sep 5.5 21:16:44 10° NNW 21:19:55 26° WNW 21:23:03 10° SW visible
